| time (UTC) | temp F | wind direction | speed MPH | gust MPH | rain 1hr in | rain 24hr in | rain mn in | humidity % | barometer mb |
| 20260503023102 | 40 | 0 | 0.0 | 0.0 | 0.00 | 0.26 | 0.20 | 78 | 1015.9 |
| 20260503021556 | 40 | 0 | 0.0 | 0.0 | 0.00 | 0.26 | 0.20 | 78 | 1015.9 |
| 20260503020057 | 40 | 0 | 0.0 | 0.0 | 0.00 | 0.26 | 0.20 | 78 | 1015.8 |
| 20260503014559 | 40 | 0 | 0.0 | 0.0 | 0.00 | 0.26 | 0.20 | 76 | 1015.7 |
| 20260503013056 | 40 | 0 | 0.0 | 0.0 | 0.00 | 0.26 | 0.20 | 75 | 1015.7 |
| 20260503011555 | 41 | 0 | 0.0 | 0.0 | 0.00 | 0.26 | 0.20 | 76 | 1015.8 |
| 20260503010057 | 41 | 0 | 0.0 | 0.0 | 0.00 | 0.26 | 0.20 | 73 | 1015.7 |
| 20260503004553 | 41 | 0 | 0.0 | 0.0 | 0.00 | 0.26 | 0.20 | 70 | 1015.6 |
| 20260503003107 | 42 | 0 | 0.0 | 0.0 | 0.00 | 0.26 | 0.20 | 66 | 1015.5 |
| 20260503001554 | 43 | 0 | 0.0 | 0.0 | 0.00 | 0.26 | 0.20 | 63 | 1015.6 |
| 20260503000055 | 43 | 0 | 0.0 | 1.0 | 0.00 | 0.26 | 0.20 | 62 | 1015.6 |
| 20260502234559 | 43 | 317 | 0.0 | 1.0 | 0.00 | 0.26 | 0.20 | 62 | 1015.4 |
| 20260502233054 | 44 | 311 | 0.0 | 3.0 | 0.00 | 0.26 | 0.20 | 61 | 1015.4 |
| 20260502231608 | 44 | 312 | 0.0 | 5.0 | 0.00 | 0.26 | 0.20 | 61 | 1015.4 |
| 20260502230058 | 44 | 72 | 0.0 | 3.0 | 0.00 | 0.26 | 0.20 | 59 | 1015.5 |
| 20260502224559 | 44 | 303 | 1.0 | 4.0 | 0.00 | 0.26 | 0.20 | 58 | 1015.5 |
| 20260502223057 | 44 | 283 | 3.0 | 7.0 | 0.00 | 0.26 | 0.20 | 58 | 1015.6 |
| 20260502221556 | 45 | 314 | 1.0 | 7.0 | 0.00 | 0.26 | 0.20 | 60 | 1015.6 |
| 20260502220056 | 44 | 64 | 2.0 | 7.0 | 0.00 | 0.26 | 0.20 | 63 | 1015.7 |
| 20260502214558 | 45 | 33 | 1.0 | 4.0 | 0.00 | 0.26 | 0.20 | 62 | 1015.6 |
| 20260502213109 | 44 | 6 | 0.0 | 5.0 | 0.00 | 0.26 | 0.20 | 63 | 1015.6 |
| 20260502211559 | 43 | 288 | 1.0 | 6.0 | 0.00 | 0.26 | 0.20 | 62 | 1015.4 |
| 20260502210058 | 43 | 306 | 3.0 | 9.0 | 0.00 | 0.26 | 0.20 | 62 | 1015.6 |
| 20260502204614 | 43 | 45 | 2.0 | 6.0 | 0.00 | 0.26 | 0.20 | 61 | 1015.4 |
| 20260502203058 | 44 | 73 | 3.0 | 8.0 | 0.00 | 0.26 | 0.20 | 60 | 1015.4 |
| 20260502201558 | 45 | 9 | 2.0 | 8.0 | 0.00 | 0.26 | 0.20 | 60 | 1015.4 |
| 20260502200100 | 45 | 336 | 1.0 | 8.0 | 0.00 | 0.26 | 0.20 | 59 | 1015.6 |
| 20260502194558 | 45 | 316 | 2.0 | 6.0 | 0.00 | 0.26 | 0.20 | 59 | 1015.6 |
| 20260502193055 | 45 | 103 | 3.0 | 9.0 | 0.00 | 0.26 | 0.20 | 57 | 1015.7 |
| 20260502191557 | 45 | 19 | 1.0 | 7.0 | 0.00 | 0.26 | 0.20 | 60 | 1015.9 |
| 20260502190056 | 45 | 324 | 2.0 | 6.0 | 0.00 | 0.26 | 0.20 | 57 | 1015.9 |
| 20260502184603 | 45 | 311 | 2.0 | 6.0 | 0.00 | 0.31 | 0.20 | 57 | 1015.9 |
| 20260502183056 | 45 | 47 | 1.0 | 9.0 | 0.00 | 0.31 | 0.20 | 58 | 1016.2 |
| 20260502181554 | 45 | 0 | 3.0 | 9.0 | 0.00 | 0.31 | 0.20 | 59 | 1016.0 |
| 20260502180107 | 45 | 231 | 2.0 | 8.0 | 0.00 | 0.31 | 0.20 | 61 | 1016.2 |
| 20260502170108 | 43 | 52 | 2.0 | 5.0 | 0.00 | 0.33 | 0.20 | 68 | 1016.4 |
| 20260502163100 | 41 | 13 | 2.0 | 6.0 | 0.00 | 0.35 | 0.20 | 72 | 1016.6 |
| 20260502161608 | 41 | 0 | 1.0 | 3.0 | 0.00 | 0.35 | 0.20 | 76 | 1016.6 |
| 20260502151555 | 38 | 124 | 1.0 | 4.0 | 0.00 | 0.46 | 0.20 | 82 | 1016.4 |
| 20260502123056 | 36 | 328 | 2.0 | 7.0 | 0.01 | 0.54 | 0.17 | 91 | 1015.7 |
| 20260502121557 | 37 | 1 | 0.0 | 2.0 | 0.00 | 0.52 | 0.16 | 91 | 1015.5 |
| 20260502114559 | 37 | 0 | 0.0 | 2.0 | 0.00 | 0.54 | 0.16 | 91 | 1015.2 |
| 20260502113057 | 36 | 0 | 0.0 | 1.0 | 0.00 | 0.54 | 0.16 | 91 | 1015.0 |
| 20260502111608 | 36 | 0 | 0.0 | 1.0 | 0.00 | 0.54 | 0.16 | 92 | 1015.1 |
| 20260502110057 | 36 | 0 | 0.0 | 2.0 | 0.00 | 0.54 | 0.16 | 91 | 1015.0 |
| 20260502104556 | 36 | 0 | 0.0 | 0.0 | 0.00 | 0.54 | 0.16 | 91 | 1015.0 |
| 20260502103108 | 36 | 0 | 0.0 | 3.0 | 0.02 | 0.54 | 0.16 | 91 | 1014.9 |
| 20260502101610 | 36 | 0 | 0.0 | 2.0 | 0.04 | 0.54 | 0.16 | 91 | 1014.8 |
| 20260502070057 | 38 | 0 | 0.0 | 0.0 | 0.01 | 0.47 | 0.09 | 91 | 1014.4 |
| 20260502064601 | 38 | 0 | 0.0 | 1.0 | 0.01 | 0.47 | 0.09 | 91 | 1014.5 |
| 20260502063059 | 38 | 0 | 0.0 | 2.0 | 0.01 | 0.47 | 0.09 | 91 | 1014.6 |
| 20260502061555 | 38 | 0 | 0.0 | 1.0 | 0.01 | 0.47 | 0.09 | 91 | 1014.6 |
| 20260502060055 | 38 | 102 | 0.0 | 1.0 | 0.00 | 0.46 | 0.08 | 91 | 1014.7 |
| 20260502054602 | 38 | 0 | 0.0 | 0.0 | 0.00 | 0.46 | 0.08 | 91 | 1014.8 |
| 20260502053057 | 38 | 0 | 0.0 | 0.0 | 0.03 | 0.46 | 0.08 | 91 | 1014.9 |
| 20260502051558 | 38 | 0 | 0.0 | 0.0 | 0.05 | 0.46 | 0.08 | 90 | 1015.1 |
| 20260502050059 | 38 | 0 | 0.0 | 0.0 | 0.08 | 0.46 | 0.08 | 90 | 1014.9 |
| 20260502044559 | 38 | 0 | 0.0 | 0.0 | 0.11 | 0.46 | 0.08 | 89 | 1015.4 |
| 20260502043107 | 39 | 0 | 0.0 | 0.0 | 0.10 | 0.43 | 0.05 | 90 | 1015.5 |
| 20260502041555 | 39 | 0 | 0.0 | 0.0 | 0.09 | 0.41 | 0.03 | 90 | 1015.4 |
| 20260502040058 | 39 | 0 | 0.0 | 2.0 | 0.06 | 0.38 | 0.00 | 90 | 1015.4 |
| 20260502034559 | 40 | 266 | 0.0 | 2.0 | 0.03 | 0.35 | 0.35 | 89 | 1015.2 |
| 20260502033108 | 40 | 309 | 1.0 | 4.0 | 0.01 | 0.33 | 0.33 | 88 | 1015.3 |
| 20260502031600 | 41 | 311 | 0.0 | 4.0 | 0.00 | 0.32 | 0.32 | 86 | 1014.9 |
| 20260502030100 | 41 | 72 | 2.0 | 6.0 | 0.00 | 0.32 | 0.32 | 86 | 1014.9 |
| 20260502024600 | 41 | 0 | 0.0 | 0.0 | 0.00 | 0.32 | 0.32 | 89 | 1014.8 |